Regional Weather Roundup
Issued by NWS

Home | Current Version | Previous Version | Text Only | Print | Product List | Glossary Off
Versions: 1 2 3 4 5 6 7 8 9 10 11 12 13 14 15 16 17 18 19 20 21 22 23 24 25 26 27 28 29 30 31 32 33 34 35 36 37 38 39 40 41 42 43 44 45 46 47 48 49 50

000
ASUS43 KIND 011909
RWRIN

WEATHER ROUNDUP FOR INDIANA
NATIONAL WEATHER SERVICE INDIANAPOLIS IN
300 PM EDT MON JUN 01 2015

NOTE: "FAIR" INDICATES FEW OR NO CLOUDS BELOW 12,000 FEET WITH NO
SIGNIFICANT WEATHER AND/OR OBSTRUCTIONS TO VISIBILITY.

* - STATION DOES NOT REPORT WEATHER SUCH AS PRECIPITATION OR FOG.

+ - STATION NOT QUALITY CONTROLLED BY THE NATIONAL WEATHER SERVICE.
    USE DATA WITH CAUTION...ESPECIALLY DEWPOINT AND RELATIVE
    HUMIDITY OBSERVATIONS.

INZ001>003-010>013-019-020-012000-
NORTHWEST INDIANA

CITY           SKY/WX    TMP DP  RH WIND       PRES   REMARKS
GARY /AIRPORT/ MOSUNNY   55  46  71 NE7       30.23F
KNOX *+        PTSUNNY   63  50  63 NE6       30.18F
LA PORTE +     CLOUDY    63  52  67 N10       30.20F
MICHIGAN CITY+ MOSUNNY   59  46  63 N9        30.22S
MONTICELLO +   PTSUNNY   61  53  74 E8        30.18F
RENSSELAER +   CLOUDY    63  55  77 NE9       30.19S
VALPARAISO     CLOUDY    63  51  65 N8        30.20F

$$

LMZ046-743>745-012000-
SOUTHERN LAKE MICHIGAN

STATION/POSITION TIME  TEMP    WIND        PRES    WAVE
                       AIR SEA DIR/SP/G            HT
                 (UTC) (F)     (DEG/KT/KT) (MB)    (FT)
BURNS HARBOR     1900   50      30/ 13/ 14 1024.0R
MICHIGAN CITY    1900   49     360/ 13/ 15   N/A
5NW MICH CITY    1900   48 54   20/ 12/ 16   N/A     3

$$

INZ004-005-014>016-021>024-012000-
NORTH CENTRAL INDIANA

CITY           SKY/WX    TMP DP  RH WIND       PRES   REMARKS
ELKHART        MOSUNNY   64  41  42 NE6       30.20F
GOSHEN         PTSUNNY   63  48  58 NE7       30.20F
LOGANSPORT +   CLOUDY    61  48  63 NE7       30.19F
PERU/GRISSOM   CLOUDY    60  51  72 E10       30.17F
ROCHESTER +    PTSUNNY   64  54  68 NE7       30.19F
SOUTH BEND     MOSUNNY   65  44  46 NE9       30.20F
WARSAW +       PTSUNNY   61  50  67 NE5       30.20S

$$

INZ006>009-017-018-025>027-012000-
NORTHEAST INDIANA

CITY           SKY/WX    TMP DP  RH WIND       PRES   REMARKS
ANGOLA *+      SUNNY     59  45  58 NE7       30.20S
AUBURN +       CLOUDY    61  46  59 E8        30.21S
FORT WAYNE     CLOUDY    57  49  74 E14       30.21S
HUNTINGTON +   CLOUDY    58  50  73 E7        30.19F

$$

INZ028-029-035-036-043>045-051>053-012000-
WEST CENTRAL INDIANA

CITY           SKY/WX    TMP DP  RH WIND       PRES   REMARKS
CRAWFORDSVL +  PTSUNNY   57  48  71 NE13      30.17S
GREENCASTLE +  CLOUDY    59  48  67 NE10      30.16S
LAFAYETTE      CLOUDY    60  52  74 NE10      30.18F
TERRE HAUTE    CLOUDY    62  53  72 NE10      30.15S

$$

INZ030>032-037>040-046>048-054>057-064-065-012000-
CENTRAL INDIANA

CITY           SKY/WX    TMP DP  RH WIND       PRES   REMARKS
ANDERSON       CLOUDY    55  46  71 NE6       30.19S
CP ATTERBURY + CLOUDY    57  54  88 NE9       30.15F
COLUMBUS       CLOUDY    55  52  88 NE7       30.16S
FISHERS *+     CLOUDY    55  52  88 E6        30.17S
FRANKFORT +    CLOUDY    58  52  80 NE9       30.20S
GREENWOOD *+   CLOUDY    57  50  77 E12       30.16F
INDIANAPOLIS   CLOUDY    58  50  75 NE10      30.14F
-EAGLE CREEK   CLOUDY    57  50  77 NE8       30.16F
KOKOMO *+      CLOUDY    57  50  77 E9        30.18S
MARION +       CLOUDY    56  49  78 E12       30.19F
MT COMFORT *+  CLOUDY    55  52  88 NE10      30.17S
SHELBYVILLE    LGT RAIN  58  53  84 NE9       30.15S
ZIONSVILLE +   CLOUDY    57  50  76 NE8       30.18S

$$

INZ033-034-041-042-049-050-058-059-012000-
EAST CENTRAL INDIANA

CITY           SKY/WX    TMP DP  RH WIND       PRES   REMARKS
MUNCIE         CLOUDY    55  49  80 E13       30.18F

$$

INZ060-061-067>069-081>083-085>088-012000-
SOUTHWEST INDIANA

CITY           SKY/WX    TMP DP  RH WIND       PRES   REMARKS
EVANSVILLE     CLOUDY    63  54  72 NE7       30.12F
HUNTINGBURG *+ CLOUDY    61  54  77 NE7       30.12F
WASHINGTON +   CLOUDY    60  51  71 NE7       30.13S

$$

INZ062-063-066-070>080-084-089>092-012000-
SOUTH CENTRAL AND SOUTHEAST INDIANA

CITY           SKY/WX    TMP DP  RH WIND       PRES   REMARKS
BLOOMINGTON    CLOUDY    59  52  77 E9        30.14S
MADISON *+     CLOUDY    55  50  82 NE9       30.15S
NORTH VERNON + CLOUDY    57  57 100 NE7       30.15S
SEYMOUR +      CLOUDY    61  54  77 NE12      30.14F

$$




USA.gov is the U.S. government's official web portal to all federal, state and local government web resources and services.